{"data":{"norad_id":67395,"epoch":"2026-05-24T23:18:42.056640Z","epoch_age_seconds":77266,"freshness":"FRESH","line1":"1 67395U 26004AJ  26144.97132010  .00000677  00000+0  79658-4 0  9990","line2":"2 67395  97.8037 143.9918 0004777 188.7714 171.3420 14.88023907 19822","mean_motion":14.88023907,"eccentricity":0.0004777,"inclination_deg":97.8037,"raan_deg":143.9918,"arg_perigee_deg":188.7714,"mean_anomaly_deg":171.342,"bstar":7.9658e-5,"rev_number":1982,"period_min":96.772638747665,"perigee_km":600.7750205644,"apogee_km":607.44585976873,"semimajor_km":6982.2474401666,"source":"CELESTRAK","updated_at":"2026-05-25T13:38:06.960042Z"}}